Location: Newark
(45.8667°N, 9.7333°E)
Time: 05:18:47
(UTC+00:00)

S-56A Canister/Altair - All Passes

Search period start: 25 January 2020 00:00
Search period end: 04 February 2020 00:00
Orbit: 634 x 2498 km, 38.9° (Epoch: 24 January)

Date Brightness Start Highest point End Pass type
(mag) Time Alt. Az. Time Alt. Az. Time Alt. Az.
25 Jan - 01:27:11 10° SW 01:27:51 10° SSW 01:28:32 10° SSW night (unlit)
25 Jan - 18:41:06 10° SSW 18:46:13 21° SSE 18:50:17 10° ESE visible
25 Jan - 20:44:16 10° WSW 20:49:31 36° S 20:53:45 10° ESE visible
25 Jan - 22:48:23 10° WSW 22:52:33 30° SSW 22:56:27 10° SE night (unlit)
26 Jan - 00:53:44 10° SW 00:55:20 12° SSW 00:56:57 10° S night (unlit)
26 Jan - 18:08:12 10° SSW 18:13:35 21° SSE 18:17:48 10° ESE visible
26 Jan - 20:11:19 10° WSW 20:16:59 36° S 20:21:21 10° ESE visible
26 Jan - 22:15:35 10° WSW 22:20:05 33° SSW 22:24:04 10° SE night (unlit)
27 Jan - 00:20:40 10° WSW 00:22:50 13° SSW 00:25:02 10° S night (unlit)
27 Jan - 17:35:16 10° SSW 17:40:54 20° SSE 17:45:18 10° ESE visible
27 Jan - 19:38:17 10° SW 19:44:25 36° S 19:49:00 10° ESE visible
27 Jan - 21:42:42 10° WSW 21:47:36 35° S 21:51:42 10° ESE night (unlit)
27 Jan - 23:47:41 10° WSW 23:50:21 15° SSW 23:52:59 10° S night (unlit)
28 Jan - 17:02:20 10° SSW 17:08:11 19° SSE 17:12:45 10° ESE visible
28 Jan - 19:05:10 10° SW 19:11:48 36° S 19:16:38 10° ESE visible
28 Jan - 21:09:45 10° WSW 21:15:06 38° S 21:19:22 10° ESE visible
28 Jan - 23:14:42 10° WSW 23:17:53 18° SSW 23:20:54 10° SSE night (unlit)
29 Jan - 16:29:24 10° SSW 16:35:24 19° SSE 16:40:10 10° ESE daylight
29 Jan - 18:32:00 10° SW 18:39:09 36° SSE 18:44:16 10° ESE visible
29 Jan - 20:36:42 10° WSW 20:42:34 41° S 20:47:02 10° ESE visible
29 Jan - 22:41:43 10° WSW 22:45:25 21° SSW 22:48:47 10° SSE night (unlit)
30 Jan - 15:56:29 10° S 16:02:35 18° SSE 16:07:30 10° ESE daylight
30 Jan - 17:58:45 10° SW 18:06:27 36° SSE 18:11:54 10° E visible
30 Jan - 20:03:34 10° WSW 20:10:00 43° S 20:14:44 10° ESE visible
30 Jan - 22:08:42 10° WSW 22:12:57 24° SSW 22:16:38 10° SSE night (unlit)
31 Jan - 15:23:37 10° S 15:29:44 17° SSE 15:34:43 10° ESE daylight
31 Jan - 17:25:29 10° SW 17:33:43 35° SSE 17:39:30 10° E visible
31 Jan - 19:30:21 10° WSW 19:37:24 45° S 19:42:25 10° ESE visible
31 Jan - 21:35:38 10° W 21:40:29 28° SSW 21:44:28 10° SE visible
01 Feb - 14:50:51 10° S 14:56:51 16° SSE 15:01:51 10° ESE daylight
01 Feb - 16:52:10 10° SW 17:00:55 35° SSE 17:07:05 10° E visible
01 Feb - 18:57:02 10° WSW 19:04:46 47° S 19:10:06 10° ESE visible
01 Feb - 21:02:29 10° W 21:07:59 32° SSW 21:12:16 10° SE visible
02 Feb - 14:18:10 10° S 14:23:55 15° SE 14:28:49 10° ESE daylight
02 Feb - 16:18:50 10° SW 16:28:05 34° SSE 16:34:36 10° E daylight
02 Feb - 18:23:40 10° WSW 18:32:04 48° S 18:37:46 10° ESE visible
02 Feb - 20:29:16 10° W 20:35:28 36° SSW 20:40:04 10° SE visible
02 Feb - 22:36:14 10° WSW 22:37:55 12° SW 22:39:32 10° SSW night (unlit)
03 Feb - 13:45:41 10° SSE 13:50:58 14° SE 13:55:34 10° ESE daylight
03 Feb - 15:45:30 10° SW 15:55:10 33° SSE 16:02:05 10° E daylight
03 Feb - 17:50:13 10° WSW 17:59:19 49° S 18:05:25 10° ESE visible
03 Feb - 19:55:59 10° W 20:02:54 40° SSW 20:07:51 10° SE visible
03 Feb - 22:02:26 10° WSW 22:05:29 15° SW 22:08:11 10° S visible
